Location: Belloy
(55.7522°N, 118.2333°W)
Time: 23:39:01
(UTC+00:00)

Envisat - Pass Details

Date: 09 December 2021
Orbit: 764 x 766 km, 98.2° (Epoch: 27 January)

Event Time Altitude Azimuth Distance (km) Brightness Sun altitude
Rises 14:02:54 0° 12° (NNE) 3,249 6.2 -16.4°
Reaches altitude 10° 14:05:18 10° 6° (N) 2,319 5.4 -16.0°
Maximum altitude 14:10:06 43° 297° (WNW) 1,075 3.3 -15.4°
Drops below altitude 10° 14:14:52 10° 227° (SW) 2,303 5.2 -14.8°
Sets 14:17:15 0° 221° (SW) 3,225 6.0 -14.4°
